Regional Weather Roundup
Issued by NWS

Home | Current Version | Previous Version | Graphics & Text | Print | Product List | Glossary On
Versions: 1 2 3 4 5 6 7 8 9 10 11 12 13 14 15 16 17 18 19 20 21 22 23 24 25 26 27 28 29 30 31 32 33 34 35 36 37 38 39 40 41 42 43 44 45 46 47 48 49 50
000
ASUS43 KLOT 280103
RWRIL

ILLINOIS REGIONAL WEATHER ROUNDUP
NATIONAL WEATHER SERVICE CHICAGO/ROMEOVILLE IL
800 PM CDT FRI MAY 27 2016

NOTE: "FAIR" INDICATES FEW OR NO CLOUDS BELOW 12,000 FEET WITH NO
SIGNIFICANT WEATHER AND/OR OBSTRUCTIONS TO VISIBILITY.

* THESE STATIONS ARE NOT UNDER NWS QUALITY CONTROL. THEY ALSO MAY NOT
  REPORT WEATHER SUCH AS PRECIPITATION OR FOG.

ILZ001-002-007-009-015-016-024-280200-
NORTHWEST ILLINOIS

CITY           SKY/WX    TMP DP  RH WIND       PRES   REMARKS
MOLINE         CLEAR     77  67  71 S13       29.74S
STERLING*      PTCLDY    75  68  78 VRB7      29.79R
$$

ILZ003-004-008-010-011-017-018-280200-
NORTH CENTRAL ILLINOIS

CITY           SKY/WX    TMP DP  RH WIND       PRES   REMARKS
ROCKFORD       MOCLDY    76  66  71 S13       29.82R
FREEPORT*      CLEAR     73  66  77 S6        29.80R
ROCHELLE*      CLOUDY    75  67  77 S15       29.81R
$$

ILZ005-006-012>014-019>023-280200-
NORTHEAST ILLINOIS

CITY           SKY/WX    TMP DP  RH WIND       PRES   REMARKS
CHICAGO-OHARE  CLOUDY    76  66  71 S9        29.82S
CHICAGO-MIDWAY CLOUDY    78  67  68 S10       29.83S HX  80
AURORA         CLOUDY    76  66  71 S12       29.83R
LANSING*       MOCLDY    76  66  71 S22G28    29.87R
WAUKEGAN       LGT RAIN  67  66  97 SE6       29.83S
DUPAGE AIRPORT PTCLDY    73  67  81 S6        29.82S
WHEELING       CLOUDY    74  68  81 SE3       29.83F
NORTHERLY ISL    N/A     63  60  90 S5          N/A
NORTHERLY ISL    N/A     63  60  90 S5          N/A
$$

LMZ740>746-280200-
SOUTHERN LAKE MICHIGAN

STATION/POSITION SKY/WX   TEMP    WIND        PRES    VSBY  WAVE
                          AIR SEA DIR/SP/G                  HT/PER
                          (F)     (DEG/KT/KT) (MB)    (MI)  (FT/S)
SOUTHERN BUOY              59 51  160/ 10/ 12 1010.6          0
WILMETTE HARBOR            62 56  170/ 10/ 12   N/A           1/ 2
HARRISON CRIB              69     140/ 13/ 14   N/A
BURNHAM HARBOR             64     140/  5/  8   N/A
CALUMET HARBOR                                1010.1R
BURNS HARBOR               75     180/  6/  9 1011.5S
MICHIGAN CITY              73     140/  8/ 11   N/A
MICHIGAN CITY 6N           67 59  170/  6/  8   N/A           1/ 2
ST. JOSEPH                 67 62  150/  8/ 10   N/A           2/ 3
$$

ILZ025>027-034>036-040-047-049-050-058-095>099-280200-
WEST-CENTRAL ILLINOIS

CITY           SKY/WX    TMP DP  RH WIND       PRES   REMARKS
QUINCY         LGT RAIN  74  69  85 SE13      29.75R
MACOMB*        MOCLDY    74  69  85 S15       29.79R
PITTSFIELD*    LGT RAIN  74  69  83 SE17G23   29.78S
$$

ILZ028>032-037-038-041>044-048-051>054-059>061-280200-
CENTRAL ILLINOIS

CITY           SKY/WX    TMP DP  RH WIND       PRES   REMARKS
BLOOMINGTON    LGT RAIN  69  69 100 S16       29.86R
DECATUR        LGT RAIN  71  66  84 S12       29.87R
PEORIA         CLOUDY    76  67  73 S14       29.80R
SPRINGFIELD    CLOUDY    74  68  81 SE13      29.82R
TAYLORVILLE    NOT AVBL
$$

ILZ033-039-045-046-055>057-062-063-280200-
EAST-CENTRAL ILLINOIS

CITY           SKY/WX    TMP DP  RH WIND       PRES   REMARKS
CHAMPAIGN      HVY RAIN  69  66  90 S20G33    29.90R VSB 3/4
MATTOON        LGT RAIN  68  64  87 S9        29.90S
$$

ILZ079-100>102-280200-
SOUTHWEST ILLINOIS

CITY           SKY/WX    TMP DP  RH WIND       PRES   REMARKS
ALTON          CLOUDY    72  68  88 S17       29.83R
BELLEVILLE     CLOUDY    71  71 100 E10G21    29.83R
CAHOKIA*       CLOUDY    73  67  81 S10       29.82R
SPARTA*        MOCLDY    70  67  91 S7        29.87R
$$

ILZ064>066-069>071-074>076-080>082-084>086-088>090-092>094-280200-
SOUTH-CENTRAL ILLINOIS

CITY           SKY/WX    TMP DP  RH WIND       PRES   REMARKS
CARBONDALE     CLOUDY    71  68  90 S6        29.88S
MT. VERNON     CLOUDY    70  64  83 CALM      29.89F
SALEM*         CLOUDY    70  67  90 SE5       29.88S
$$

ILZ067-068-072-073-078-083-087-091-280200-
SOUTHEAST ILLINOIS

CITY           SKY/WX    TMP DP  RH WIND       PRES   REMARKS
LAWRENCEVILLE  CLOUDY    79  64  60 S8        29.91R HX  81
FLORA*         CLOUDY    71  68  92 S6        29.90F
HARRISBURG*    CLOUDY    73  70  91 SE5       29.90S
ROBINSON*      CLOUDY    73  67  81 W3        29.92R
$$

ABBREVIATIONS USED IN REMARKS
   TC - TEMPERATURE IN CELSIUS
  WCI - WIND CHILL INDEX
   HX - HEAT INDEX
  VSB - VISIBILITY
$$





USA.gov is the U.S. government's official web portal to all federal, state and local government web resources and services.